FALCON 9 R/B, 58996

Orbit data source: Space-Track

FALCON 9 R/B, 58996 is space debris in HEO originally from a launch on Tue, 20 Feb 2024 UTC launched from the Air Force Eastern Test Range (AFETR). Debris objects in space refer to the collection of defunct objects orbiting the Earth. Examples of debris include non-operational satellites, rocket bodies, and fragments generated from explosions, collisions, or faulty payload assembly.

Loading next visibility...
Identifier
58996, 2024-035B
Orbit
HEO
Country
Flag of USUS
Related business
Manufacturer
SpaceX
Mission
Spacecraft
Bus & Motor
F9ST2, Unknown motor
Mass
~4,000 kg wet, ~4,000 kg dry
Launch date (UTC)
2024-02-20 (2 years ago)
Launch vehicle
Unknown
Launch site
Air Force Eastern Test Range (AFETR)
Object type
Payload
Rocket body
Debris
Shape & HBR
Cyl, 7.8 m
Radar Cross Section
39.980 m², Large (>1 m²)

Expand to show TLE details & history
Last TLE update: 3 days ago

TLE from 3 days ago
0 FALCON 9 R/B
1 58996U 24035B   25285.45784865  .00000220  00000-0  32643-2 0  9994
2 58996  18.8687 154.9071 7990895  57.3865 355.5452  1.39533185  8347
Epoch: 2025-10-12T10:59Z
TLE epoch observation values (Epoch: 2025-10-12T10:59:18.123Z)
Latitude
-0.00114°
Longitude
-30.90663°
Altitude
2,095.368 km
Speed
9.071 km/s
True Right ascension
10h 20m 46s
True Declination
0° 00' 04"
Sunlit
Object was in daylight at epoch
Visualization orbit readout
Latitude
Unknown
Longitude
Unknown
Altitude
Unknown
Speed
Unknown
Apparent Right ascension
Unknown
Apparent Declination
Unknown
Sunlit
N/A
Visualization observer readout
Local Sidereal Time
13:20:55
Azimuth
Unknown
Elevation
Unknown
Doppler factor
Unknown
Orbital elements
Apogee altitude
54,491.595 km
Perigee altitude
419.395 km
Semi-major axis
33,833.632 km
Eccentricity
0.79909
Inclination
18.8687°
RAAN
154.9071°
Arg. of periapsis
57.3865°
True anomaly
303.26853°
Mean anomaly
355.5452°
Eccentric anomaly
339.54433°
Mean motion
0.34875 °/min
Orbital period
1,032.24 mins
BSTAR
0.0032643
Loading maneuver chart data...
Computing Atmospheric mass density...
Loading historical data...
Loading historical data...
Loading historical data...
Loading historical data...
Loading historical data...
Loading historical data...
Loading historical data...
Other satellites on launch #35 in the year 2024 (2024-02-20 UTC)

Documentation

Showing up to 5 results
|